GW3170 Weather Reports


time (UTC)temp
C
wind
direction
speed
KPH
gust
KPH
rain 1hr
cm
rain 24hr
cm
rain mn
cm
humidity
%
barometer
mb
20260508153555 7 231 4.8 12.9 0.05 0.10 0.10 79 1012.3
20260508153057 7 205 4.8 12.9 0.05 0.10 0.10 81 1012.3
20260508152555 7 256 6.4 14.5 0.05 0.10 0.10 80 1012.3
20260508152056 7 249 4.8 14.5 0.05 0.10 0.10 84 1012.3
20260508151558 7 285 6.4 14.5 0.05 0.10 0.10 84 1012.3
20260508151054 6 248 4.8 9.7 0.05 0.10 0.10 88 1012.4
20260508150554 6 276 4.8 9.7 0.05 0.10 0.10 89 1012.3
20260508150122 6 303 4.8 9.7 0.05 0.10 0.10 90 1012.4
20260508145555 5 273 4.8 9.7 0.05 0.10 0.10 88 1012.5
20260508145054 5 283 4.8 12.9 0.05 0.10 0.10 88 1012.5
20260508144604 5 261 8.0 12.9 0.03 0.08 0.08 87 1012.4
20260508144054 6 277 8.0 12.9 0.00 0.05 0.05 86 1012.5
20260508143559 6 266 4.8 16.1 0.00 0.05 0.05 84 1012.4
20260508143055 6 266 9.7 16.1 0.00 0.05 0.05 83 1012.4
20260508142554 6 271 4.8 9.7 0.00 0.05 0.05 84 1012.4
20260508142057 6 220 4.8 9.7 0.00 0.05 0.05 84 1012.4
20260508141603 6 295 4.8 9.7 0.00 0.05 0.05 84 1012.4
20260508141053 6 270 4.8 9.7 0.03 0.05 0.05 85 1012.4
20260508140553 6 215 4.8 8.0 0.03 0.05 0.05 86 1012.2
20260508140100 6 252 3.2 8.0 0.03 0.05 0.05 87 1012.2
20260508135555 6 293 4.8 8.0 0.03 0.05 0.05 87 1012.3
20260508135054 6 278 4.8 8.0 0.03 0.05 0.05 87 1012.1
20260508134556 6 278 1.6 9.7 0.03 0.05 0.05 86 1012.1
20260508134054 6 254 4.8 9.7 0.03 0.05 0.05 87 1012.1
20260508133554 6 254 4.8 11.3 0.03 0.05 0.05 87 1012.1
20260508133055 6 280 6.4 11.3 0.03 0.05 0.05 87 1012.2
20260508132554 6 243 1.6 6.4 0.03 0.05 0.05 87 1012.2
20260508132054 6 295 3.2 8.0 0.03 0.05 0.05 87 1012.1
20260508131558 6 290 3.2 8.0 0.03 0.05 0.05 87 1012.0
20260508131054 6 264 3.2 8.0 0.00 0.03 0.03 86 1012.0
20260508130554 6 289 3.2 6.4 0.00 0.03 0.03 87 1012.0
20260508130056 6 257 3.2 4.8 0.00 0.03 0.03 87 1012.0
20260508125554 6 298 1.6 8.0 0.00 0.03 0.03 87 1011.9
20260508125055 6 275 1.6 8.0 0.00 0.03 0.03 86 1011.8
20260508124601 6 285 6.4 8.0 0.00 0.03 0.03 86 1011.7
20260508124057 6 276 4.8 8.0 0.00 0.03 0.03 87 1011.7
20260508123554 6 297 1.6 8.0 0.00 0.03 0.03 88 1011.7
20260508123055 6 278 1.6 8.0 0.00 0.03 0.03 89 1011.7
20260508122553 6 277 1.6 8.0 0.00 0.03 0.03 89 1011.5
20260508122054 6 292 1.6 8.0 0.00 0.03 0.03 90 1011.4
20260508121556 6 292 0.0 3.2 0.00 0.03 0.03 91 1011.3
20260508121055 6 285 0.0 3.2 0.00 0.03 0.03 91 1011.2
20260508120554 5 0 0.0 3.2 0.00 0.03 0.03 91 1011.2
20260508120055 5 0 0.0 3.2 0.00 0.03 0.03 92 1011.2
20260508115554 5 0 0.0 3.2 0.00 0.03 0.03 92 1011.4
20260508115054 5 0 0.0 0.0 0.00 0.03 0.03 92 1011.3
20260508114601 5 0 0.0 0.0 0.00 0.03 0.03 92 1011.2
20260508114119 5 0 0.0 0.0 0.00 0.03 0.03 92 1011.2
20260508113554 5 0 0.0 0.0 0.00 0.03 0.03 92 1011.3
20260508113127 5 0 0.0 0.0 0.00 0.03 0.03 92 1011.2
20260508112553 4 0 0.0 0.0 0.00 0.03 0.03 92 1011.2
20260508112053 4 0 0.0 0.0 0.00 0.03 0.03 92 1011.2
20260508111601 4 0 0.0 0.0 0.00 0.03 0.03 92 1011.3
20260508111054 4 0 0.0 0.0 0.00 0.03 0.03 92 1011.4
20260508110555 4 0 0.0 0.0 0.00 0.03 0.03 92 1011.4
20260508110057 4 0 0.0 0.0 0.00 0.03 0.03 92 1011.4
20260508105553 4 0 0.0 0.0 0.00 0.03 0.03 92 1011.4
20260508105054 3 0 0.0 0.0 0.00 0.03 0.03 92 1011.5
20260508104559 3 0 0.0 0.0 0.00 0.03 0.03 92 1011.5
20260508104054 3 0 0.0 0.0 0.00 0.03 0.03 92 1011.4
20260508103554 3 0 0.0 0.0 0.00 0.03 0.03 92 1011.5
20260508103107 3 0 0.0 0.0 0.00 0.03 0.03 91 1011.5
20260508102554 3 0 0.0 0.0 0.00 0.03 0.03 91 1011.4
20260508102054 3 0 0.0 0.0 0.00 0.03 0.03 91 1011.4
20260508101602 3 0 0.0 0.0 0.00 0.03 0.03 91 1011.3
20260508101054 3 0 0.0 0.0 0.00 0.03 0.03 91 1011.2
20260508100553 3 0 0.0 0.0 0.00 0.03 0.03 91 1011.3
20260508095556 3 0 0.0 0.0 0.00 0.03 0.03 91 1011.5
20260508095054 3 0 0.0 0.0 0.00 0.03 0.03 91 1011.5
20260508094558 3 0 0.0 0.0 0.00 0.03 0.03 91 1011.5
20260508094056 3 0 0.0 0.0 0.00 0.03 0.03 92 1011.4
20260508093556 2 0 0.0 0.0 0.00 0.03 0.03 91 1011.3
20260508093100 2 0 0.0 0.0 0.00 0.03 0.03 90 1011.3
20260508092556 2 0 0.0 0.0 0.00 0.03 0.03 90 1011.1
20260508092054 2 0 0.0 0.0 0.00 0.03 0.03 89 1011.0
20260508091559 2 0 0.0 0.0 0.00 0.03 0.03 89 1010.9
20260508091055 2 0 0.0 0.0 0.00 0.03 0.03 89 1011.1
20260508090554 2 0 0.0 0.0 0.00 0.03 0.03 89 1011.1
20260508085554 3 0 0.0 0.0 0.00 0.03 0.03 89 1011.2
20260508085054 3 0 0.0 0.0 0.00 0.03 0.03 89 1011.1
20260508084558 3 0 0.0 0.0 0.00 0.03 0.03 89 1011.1
20260508084054 3 0 0.0 0.0 0.00 0.03 0.03 89 1011.1
20260508083553 3 0 0.0 0.0 0.00 0.03 0.03 88 1011.1
20260508083056 3 0 0.0 0.0 0.00 0.03 0.03 88 1011.0
20260508082555 3 0 0.0 0.0 0.00 0.03 0.03 88 1011.1
20260508082054 3 0 0.0 0.0 0.00 0.03 0.03 88 1011.1
20260508081605 3 0 0.0 0.0 0.00 0.03 0.03 88 1011.2
20260508081054 3 0 0.0 0.0 0.00 0.03 0.03 87 1011.1
20260508080554 3 0 0.0 0.0 0.00 0.03 0.03 87 1011.0
20260508080058 4 0 0.0 0.0 0.00 0.03 0.03 87 1011.0
20260508075555 4 0 0.0 0.0 0.00 0.03 0.03 87 1011.1
20260508075054 4 0 0.0 0.0 0.00 0.03 0.03 87 1011.1
20260508074600 5 0 0.0 0.0 0.00 0.03 0.03 87 1011.1
20260508074054 5 0 0.0 0.0 0.00 0.03 0.03 87 1011.1
20260508073554 5 0 0.0 0.0 0.00 0.03 0.03 87 1011.1
20260508073106 5 0 0.0 0.0 0.00 0.03 0.03 87 1011.1
20260508072554 5 0 0.0 1.6 0.00 0.03 0.03 87 1011.1
20260508072055 5 0 0.0 3.2 0.00 0.03 0.03 87 1011.1
20260508071600 5 242 0.0 3.2 0.00 0.03 0.03 87 1011.2
20260508071054 5 0 0.0 3.2 0.00 0.03 0.03 86 1011.2
20260508070554 5 218 0.0 4.8 0.00 0.03 0.03 86 1011.2
20260508070101 5 0 1.6 4.8 0.00 0.03 0.03 86 1011.3
20260508065555 5 242 1.6 4.8 0.00 0.03 0.03 86 1011.3
20260508065055 5 0 0.0 3.2 0.00 0.03 0.03 86 1011.3
20260508064606 5 0 0.0 3.2 0.00 0.03 0.03 86 1011.2
20260508064054 5 0 0.0 1.6 0.03 0.03 0.03 85 1011.3
20260508063555 5 0 0.0 3.2 0.03 0.03 0.03 85 1011.4
20260508063057 5 0 1.6 3.2 0.03 0.03 0.03 86 1011.4
20260508062554 5 267 0.0 0.0 0.03 0.03 0.03 85 1011.4
20260508062054 5 0 0.0 0.0 0.03 0.03 0.03 85 1011.4
20260508061601 5 0 0.0 3.2 0.03 0.03 0.03 85 1011.4
20260508061054 5 0 0.0 3.2 0.03 0.03 0.03 85 1011.4
20260508060555 5 0 0.0 1.6 0.03 0.03 0.03 84 1011.4
20260508055554 5 0 0.0 6.4 0.03 0.03 0.03 82 1011.3
20260508055054 5 309 3.2 17.7 0.03 0.03 0.03 81 1011.4
20260508054626 5 333 4.8 17.7 0.03 0.03 0.03 80 1011.5
20260508054104 6 292 4.8 9.7 0.00 0.00 0.00 79 1011.5
20260508053554 6 323 1.6 8.0 0.00 0.00 0.00 77 1011.4
20260508053056 6 335 1.6 6.4 0.00 0.00 0.00 76 1011.3
20260508052603 6 331 1.6 8.0 0.00 0.00 0.00 75 1011.2
20260508052057 6 0 1.6 8.0 0.00 0.00 0.00 75 1011.0
20260508051558 6 0 1.6 8.0 0.00 0.00 0.00 74 1011.1
20260508051055 6 288 1.6 9.7 0.00 0.00 0.00 73 1011.0
20260508050555 6 0 3.2 9.7 0.00 0.00 0.00 72 1010.9
20260508050058 6 298 4.8 9.7 0.00 0.00 0.00 72 1011.0
20260508045554 6 311 3.2 6.4 0.00 0.00 0.00 72 1010.8
20260508045054 6 286 3.2 6.4 0.00 0.00 0.00 72 1010.9
20260508044555 6 300 0.0 8.0 0.00 0.00 0.00 73 1010.9
20260508044055 6 283 3.2 8.0 0.00 0.00 0.00 73 1011.0
20260508043556 6 293 1.6 4.8 0.00 0.00 0.00 72 1010.9
20260508043058 6 248 1.6 4.8 0.00 0.00 0.00 72 1010.9
20260508042554 6 275 1.6 6.4 0.00 0.00 0.00 71 1010.8
20260508042054 6 289 0.0 6.4 0.00 0.00 0.00 73 1010.9
20260508041558 6 295 0.0 6.4 0.00 0.00 0.00 72 1010.9
20260508041054 6 286 0.0 3.2 0.00 0.00 0.00 73 1010.9
20260508040555 6 275 0.0 3.2 0.00 0.00 0.00 74 1010.9
20260508040104 6 0 0.0 3.2 0.00 0.00 0.00 74 1010.9
20260508035558 5 0 0.0 3.2 0.00 0.00 0.00 75 1010.8
20260508035054 5 0 1.6 3.2 0.00 0.00 0.00 77 1010.9
20260508034555 5 0 0.0 0.0 0.00 0.00 0.00 79 1010.9
20260508034053 5 0 0.0 0.0 0.00 0.00 0.00 81 1010.9
20260508033553 4 0 0.0 0.0 0.00 0.00 0.00 83 1010.8
20260508033058 4 0 0.0 0.0 0.00 0.00 0.00 84 1010.8
20260508032556 4 0 0.0 0.0 0.00 0.00 0.00 83 1010.7
20260508032054 3 0 0.0 0.0 0.00 0.00 0.00 81 1010.6
20260508031603 3 0 0.0 0.0 0.00 0.00 0.00 81 1010.6
20260508031054 4 0 0.0 0.0 0.00 0.00 0.00 81 1010.6
20260508030554 4 0 0.0 0.0 0.00 0.00 0.00 80 1010.6
20260508030104 4 0 0.0 0.0 0.00 0.00 0.00 80 1010.5
20260508025553 4 0 0.0 0.0 0.00 0.00 0.00 79 1010.6
20260508025054 4 0 0.0 0.0 0.00 0.00 0.00 78 1010.6
20260508024556 4 0 0.0 0.0 0.00 0.00 0.00 77 1010.6
20260508024056 5 0 0.0 0.0 0.00 0.00 0.00 76 1010.5
20260508023555 5 0 0.0 0.0 0.00 0.00 0.00 76 1010.5
20260508023133 5 0 0.0 0.0 0.00 0.00 0.00 76 1010.4
20260508022553 5 0 0.0 0.0 0.00 0.00 0.00 75 1010.5
20260508022055 5 0 0.0 0.0 0.00 0.00 0.00 74 1010.4
20260508021608 5 0 0.0 0.0 0.00 0.00 0.00 74 1010.4
20260508021054 6 0 0.0 0.0 0.00 0.00 0.00 73 1010.5
20260508020554 6 0 0.0 0.0 0.00 0.00 0.00 72 1010.5
20260508020055 6 0 0.0 0.0 0.00 0.00 0.00 72 1010.5
20260508015554 6 0 0.0 0.0 0.00 0.00 0.00 71 1010.6
20260508015054 6 0 0.0 0.0 0.00 0.00 0.00 71 1010.6
20260508014557 6 0 0.0 0.0 0.00 0.00 0.00 69 1010.6
20260508014054 6 0 0.0 0.0 0.00 0.00 0.00 68 1010.6
20260508013554 6 0 0.0 0.0 0.00 0.00 0.00 67 1010.7
20260508013058 6 0 0.0 0.0 0.00 0.00 0.00 67 1010.7
20260508012554 7 0 0.0 0.0 0.00 0.00 0.00 67 1010.7
20260508012056 7 0 0.0 0.0 0.00 0.00 0.00 65 1010.7
20260508011606 7 0 0.0 0.0 0.00 0.00 0.00 65 1010.7
20260508011054 7 0 0.0 0.0 0.00 0.00 0.00 64 1010.6
20260508010554 7 0 0.0 0.0 0.00 0.00 0.00 62 1010.6
20260508010054 7 0 0.0 0.0 0.00 0.00 0.00 64 1010.6
20260508005558 8 0 0.0 0.0 0.00 0.00 0.00 61 1010.5
20260508005100 8 0 0.0 0.0 0.00 0.00 0.00 60 1010.4
20260508004554 8 0 0.0 0.0 0.00 0.00 0.00 58 1010.2
20260508004055 8 0 0.0 0.0 0.00 0.00 0.00 55 1010.1
20260508003554 8 0 0.0 1.6 0.00 0.00 0.00 53 1010.2
20260508003053 8 314 0.0 1.6 0.00 0.00 0.00 52 1010.1
20260508002556 8 0 0.0 0.0 0.00 0.00 0.00 52 1010.2
20260508002056 8 0 0.0 0.0 0.00 0.00 0.00 54 1010.1
20260508001556 8 0 0.0 0.0 0.00 0.00 0.00 55 1010.0
20260508001056 8 0 0.0 4.8 0.00 0.00 0.00 52 1010.0
20260508000554 8 0 0.0 4.8 0.00 0.00 0.00 53 1010.0
20260508000113 8 309 0.0 4.8 0.00 0.00 0.00 52 1010.0
20260507235558 8 0 0.0 1.6 0.00 0.00 0.00 51 1010.0
20260507235055 8 0 0.0 3.2 0.00 0.00 0.00 52 1010.0
20260507234554 9 0 0.0 3.2 0.00 0.00 0.00 49 1010.0
20260507234055 9 315 0.0 3.2 0.00 0.00 0.00 50 1010.1
20260507233554 9 0 0.0 1.6 0.00 0.00 0.00 51 1010.1
20260507233056 9 0 0.0 4.8 0.00 0.00 0.00 49 1009.9
20260507232556 9 0 0.0 4.8 0.00 0.00 0.00 49 1009.8
20260507232056 9 293 0.0 3.2 0.00 0.00 0.00 49 1009.8
20260507231604 9 0 0.0 3.2 0.00 0.00 0.00 49 1009.9
20260507231059 10 337 0.0 6.4 0.00 0.00 0.00 47 1009.8
20260507230555 10 0 0.0 6.4 0.00 0.00 0.00 46 1009.8
20260507225556 10 334 0.0 8.0 0.00 0.00 0.00 46 1009.8
20260507225101 10 324 0.0 8.0 0.00 0.00 0.00 45 1009.8
20260507224556 10 316 1.6 6.4 0.00 0.00 0.00 44 1009.9
20260507224057 10 333 0.0 8.0 0.00 0.00 0.00 46 1009.9
20260507223559 10 332 3.2 8.0 0.00 0.00 0.00 44 1009.9
20260507223055 10 330 3.2 8.0 0.00 0.00 0.00 43 1010.0
20260507222557 10 309 1.6 8.0 0.00 0.00 0.00 44 1010.0
20260507222056 10 0 0.0 3.2 0.00 0.00 0.00 43 1010.0
20260507221600 10 342 0.0 6.4 0.00 0.00 0.00 44 1009.9
20260507221057 10 344 1.6 6.4 0.00 0.00 0.00 42 1009.9
20260507220558 11 319 1.6 11.3 0.00 0.00 0.00 42 1009.9
20260507220054 11 320 3.2 11.3 0.00 0.00 0.00 42 1010.0
20260507215555 11 349 1.6 8.0 0.00 0.00 0.00 40 1010.0
20260507215055 12 343 1.6 8.0 0.00 0.00 0.00 43 1009.9
20260507214555 12 14 3.2 6.4 0.00 0.00 0.00 41 1009.9
20260507214059 12 359 1.6 12.9 0.00 0.00 0.00 42 1009.9
20260507213556 12 347 3.2 12.9 0.00 0.00 0.00 40 1009.9
20260507213054 11 339 4.8 12.9 0.00 0.00 0.00 44 1009.9
20260507212554 11 313 6.4 12.9 0.00 0.00 0.00 39 1009.9
20260507212053 11 330 3.2 14.5 0.00 0.00 0.00 41 1009.9
20260507211600 11 338 4.8 14.5 0.00 0.00 0.00 45 1009.9
20260507211056 11 358 3.2 14.5 0.00 0.00 0.00 44 1009.9
20260507210557 11 345 3.2 14.5 0.00 0.00 0.00 46 1009.9
20260507210058 11 12 3.2 14.5 0.00 0.00 0.00 43 1009.9
20260507205557 11 342 4.8 14.5 0.00 0.00 0.00 45 1009.9
20260507205054 11 312 4.8 14.5 0.00 0.00 0.00 48 1009.9
20260507204557 12 292 8.0 14.5 0.00 0.00 0.00 45 1009.9
20260507204054 11 328 4.8 9.7 0.00 0.00 0.00 46 1009.9
20260507203601 11 344 3.2 8.0 0.00 0.00 0.00 47 1009.9
20260507203102 11 354 4.8 8.0 0.00 0.00 0.00 46 1009.9
20260507202557 11 32 3.2 9.7 0.00 0.00 0.00 48 1009.9
20260507202056 11 0 1.6 9.7 0.00 0.00 0.00 45 1009.9
20260507201559 12 338 3.2 9.7 0.00 0.00 0.00 46 1009.9
20260507201057 12 294 4.8 9.7 0.00 0.00 0.00 47 1009.9
20260507200557 12 350 0.0 14.5 0.00 0.00 0.00 46 1010.1
20260507200103 12 333 1.6 14.5 0.00 0.00 0.00 48 1010.1
20260507195557 12 329 4.8 14.5 0.00 0.00 0.00 48 1010.2
20260507195057 12 295 3.2 9.7 0.00 0.00 0.00 46 1010.1
20260507194556 12 345 4.8 14.5 0.00 0.00 0.00 45 1010.2
20260507194056 12 351 4.8 14.5 0.00 0.00 0.00 46 1010.2
20260507193557 12 288 3.2 11.3 0.00 0.00 0.00 47 1010.2
20260507193059 12 347 4.8 12.9 0.00 0.00 0.00 49 1010.2
20260507192556 12 328 3.2 12.9 0.00 0.00 0.00 50 1010.2
20260507192056 12 325 6.4 12.9 0.00 0.00 0.00 50 1010.3
20260507191558 12 344 3.2 12.9 0.00 0.00 0.00 46 1010.2
20260507191056 12 330 3.2 8.0 0.00 0.00 0.00 47 1010.2
20260507190556 12 302 4.8 8.0 0.00 0.00 0.00 46 1010.3
20260507190057 12 302 3.2 17.7 0.00 0.00 0.00 47 1010.2
20260507185556 12 340 4.8 17.7 0.00 0.03 0.00 48 1010.4
20260507185055 12 290 4.8 11.3 0.00 0.03 0.00 47 1010.4
20260507184554 12 323 4.8 12.9 0.00 0.03 0.00 46 1010.5
20260507184057 12 348 3.2 20.9 0.00 0.03 0.00 47 1010.4
20260507183558 12 6 3.2 20.9 0.00 0.03 0.00 47 1010.5
20260507183058 12 297 6.4 12.9 0.00 0.03 0.00 47 1010.6
20260507182556 12 320 4.8 9.7 0.00 0.03 0.00 48 1010.6
20260507182057 12 343 3.2 9.7 0.00 0.03 0.00 45 1010.7
20260507181554 12 310 4.8 37.0 0.00 0.03 0.00 45 1010.8
20260507181055 12 12 6.4 37.0 0.00 0.03 0.00 46 1010.8
20260507180555 12 217 8.0 14.5 0.00 0.03 0.00 48 1010.7
20260507180104 12 193 6.4 14.5 0.00 0.03 0.00 49 1010.8
20260507175556 11 288 6.4 14.5 0.00 0.03 0.00 53 1010.8
20260507175054 11 247 1.6 11.3 0.00 0.03 0.00 51 1010.8
20260507174622 11 277 3.2 14.5 0.00 0.03 0.00 50 1010.8
20260507174056 11 279 6.4 14.5 0.00 0.03 0.00 54 1010.8
20260507173556 11 268 4.8 16.1 0.00 0.03 0.00 54 1011.0
20260507173055 11 259 8.0 16.1 0.00 0.03 0.00 55 1011.0
20260507172556 11 0 0.0 12.9 0.00 0.03 0.00 52 1011.1
20260507172057 11 293 1.6 12.9 0.00 0.03 0.00 53 1011.1
20260507171610 11 293 8.0 12.9 0.00 0.03 0.00 53 1011.2
20260507171056 11 287 4.8 19.3 0.00 0.03 0.00 56 1011.2
20260507170556 11 281 4.8 19.3 0.00 0.03 0.00 60 1011.3
20260507170057 10 252 4.8 12.9 0.00 0.03 0.00 60 1011.3
20260507165559 10 214 4.8 12.9 0.00 0.03 0.00 61 1011.3
20260507165054 10 236 4.8 14.5 0.00 0.03 0.00 60 1011.4
20260507164556 10 298 6.4 14.5 0.00 0.03 0.00 55 1011.4
20260507164054 10 301 4.8 12.9 0.00 0.03 0.00 54 1011.4
20260507163555 10 287 4.8 16.1 0.00 0.03 0.00 57 1011.5
20260507163054 10 283 8.0 16.1 0.00 0.03 0.00 61 1011.5
20260507162557 10 293 3.2 12.9 0.00 0.03 0.00 60 1011.6
20260507162059 10 302 6.4 12.9 0.00 0.03 0.00 57 1011.7
20260507161558 10 222 1.6 11.3 0.00 0.03 0.00 59 1011.7
20260507161056 10 274 4.8 11.3 0.00 0.03 0.00 55 1011.8
20260507160554 10 263 4.8 9.7 0.00 0.03 0.00 58 1011.7
20260507160117 10 163 4.8 9.7 0.00 0.03 0.00 58 1011.9
20260507155558 10 289 4.8 11.3 0.00 0.03 0.00 58 1011.9
20260507155100 10 277 3.2 12.9 0.00 0.03 0.00 60 1012.0
20260507154554 10 212 3.2 12.9 0.00 0.03 0.00 56 1012.0
20260507154053 9 0 1.6 8.0 0.00 0.03 0.00 55 1012.0